<?xml version="1.0" encoding="UTF-8" standalone="no" ?>
<gpx xmlns="http://www.topografix.com/GPX/1/1" xmlns:xsi="http://www.w3.org/2001/XMLSchema-instance" xsi:schemaLocation="http://www.topografix.com/GPX/1/1 http://www.topografix.com/GPX/1/1/gpx.xsd" version="1.1" creator="VisuGPX - https://www.visugpx.com">
  <metadata>
    <name>E-paladru 02</name>
    <desc><![CDATA[parcours n° 02]]></desc>
  </metadata>
  <trk>
    <name><![CDATA[Collines d'Oyeu et de Châbons - 1100 - UtagawaVTT.com]]></name>
    <trkseg>
      <trkpt lat="45.42258" lon="5.47705">
        <ele>568.23999</ele>
        <time>2007-02-09T15:07:10Z</time>
      </trkpt>
      <trkpt lat="45.42238" lon="5.47558">
        <ele>557.73761</ele>
        <time>2007-02-09T15:07:10Z</time>
      </trkpt>
      <trkpt lat="45.42157" lon="5.47561">
        <ele>563.984009</ele>
        <time>2007-02-09T15:07:10Z</time>
      </trkpt>
      <trkpt lat="45.42135" lon="5.47499">
        <ele>559.960022</ele>
        <time>2007-02-09T15:07:10Z</time>
      </trkpt>
      <trkpt lat="45.42097" lon="5.47348">
        <ele>563.375977</ele>
        <time>2007-02-09T15:07:10Z</time>
      </trkpt>
      <trkpt lat="45.42141" lon="5.47283">
        <ele>553.919983</ele>
        <time>2007-02-09T15:07:10Z</time>
      </trkpt>
      <trkpt lat="45.42084" lon="5.4728">
        <ele>559.987183</ele>
        <time>2007-02-09T15:07:10Z</time>
      </trkpt>
      <trkpt lat="45.42056" lon="5.47095">
        <ele>554.929626</ele>
        <time>2007-02-09T15:07:10Z</time>
      </trkpt>
      <trkpt lat="45.42007" lon="5.47154">
        <ele>560.96637</ele>
        <time>2007-02-09T15:07:10Z</time>
      </trkpt>
      <trkpt lat="45.41758" lon="5.4722">
        <ele>587.208008</ele>
        <time>2007-02-09T15:07:10Z</time>
      </trkpt>
      <trkpt lat="45.41557" lon="5.47217">
        <ele>619.23999</ele>
        <time>2007-02-09T15:07:10Z</time>
      </trkpt>
      <trkpt lat="45.41447" lon="5.47295">
        <ele>629.37439</ele>
        <time>2007-02-09T15:07:10Z</time>
      </trkpt>
      <trkpt lat="45.41148" lon="5.47429">
        <ele>688.392029</ele>
        <time>2007-02-09T15:07:10Z</time>
      </trkpt>
      <trkpt lat="45.41313" lon="5.47589">
        <ele>691.340759</ele>
        <time>2007-02-09T15:07:10Z</time>
      </trkpt>
      <trkpt lat="45.4134" lon="5.47713">
        <ele>705.36322</ele>
        <time>2007-02-09T15:07:10Z</time>
      </trkpt>
      <trkpt lat="45.41266" lon="5.47989">
        <ele>732.153564</ele>
        <time>2007-02-09T15:07:10Z</time>
      </trkpt>
      <trkpt lat="45.41335" lon="5.48194">
        <ele>743.720032</ele>
        <time>2007-02-09T15:07:10Z</time>
      </trkpt>
      <trkpt lat="45.41433" lon="5.48121">
        <ele>736.640015</ele>
        <time>2007-02-09T15:07:10Z</time>
      </trkpt>
      <trkpt lat="45.41459" lon="5.48303">
        <ele>736.47522</ele>
        <time>2007-02-09T15:07:10Z</time>
      </trkpt>
      <trkpt lat="45.41515" lon="5.48421">
        <ele>728.519958</ele>
        <time>2007-02-09T15:07:10Z</time>
      </trkpt>
      <trkpt lat="45.41292" lon="5.48508">
        <ele>726.840027</ele>
        <time>2007-02-09T15:07:10Z</time>
      </trkpt>
      <trkpt lat="45.41191" lon="5.486">
        <ele>732.600037</ele>
        <time>2007-02-09T15:07:10Z</time>
      </trkpt>
      <trkpt lat="45.41152" lon="5.4881">
        <ele>738.799988</ele>
        <time>2007-02-09T15:07:10Z</time>
      </trkpt>
      <trkpt lat="45.41034" lon="5.49053">
        <ele>724.615967</ele>
        <time>2007-02-09T15:07:10Z</time>
      </trkpt>
      <trkpt lat="45.41201" lon="5.49068">
        <ele>710.440002</ele>
        <time>2007-02-09T15:07:10Z</time>
      </trkpt>
      <trkpt lat="45.41299" lon="5.49012">
        <ele>692.69281</ele>
        <time>2007-02-09T15:07:10Z</time>
      </trkpt>
      <trkpt lat="45.41302" lon="5.48934">
        <ele>694.78241</ele>
        <time>2007-02-09T15:07:10Z</time>
      </trkpt>
      <trkpt lat="45.41541" lon="5.49135">
        <ele>628.919983</ele>
        <time>2007-02-09T15:07:10Z</time>
      </trkpt>
      <trkpt lat="45.41591" lon="5.49249">
        <ele>634.800049</ele>
        <time>2007-02-09T15:07:10Z</time>
      </trkpt>
      <trkpt lat="45.4176" lon="5.49021">
        <ele>652.76001</ele>
        <time>2007-02-09T15:07:10Z</time>
      </trkpt>
      <trkpt lat="45.41816" lon="5.49375">
        <ele>681.462402</ele>
        <time>2007-02-09T15:07:10Z</time>
      </trkpt>
      <trkpt lat="45.41758" lon="5.49735">
        <ele>708.303955</ele>
        <time>2007-02-09T15:07:10Z</time>
      </trkpt>
      <trkpt lat="45.41465" lon="5.50044">
        <ele>757.280029</ele>
        <time>2007-02-09T15:07:10Z</time>
      </trkpt>
      <trkpt lat="45.41415" lon="5.50208">
        <ele>767.360046</ele>
        <time>2007-02-09T15:07:10Z</time>
      </trkpt>
      <trkpt lat="45.41551" lon="5.50098">
        <ele>749.799988</ele>
        <time>2007-02-09T15:07:10Z</time>
      </trkpt>
      <trkpt lat="45.41507" lon="5.50409">
        <ele>757.252808</ele>
        <time>2007-02-09T15:07:10Z</time>
      </trkpt>
      <trkpt lat="45.41533" lon="5.50535">
        <ele>760</ele>
        <time>2007-02-09T15:07:10Z</time>
      </trkpt>
      <trkpt lat="45.41478" lon="5.50884">
        <ele>755.556763</ele>
        <time>2007-02-09T15:07:10Z</time>
      </trkpt>
      <trkpt lat="45.41209" lon="5.51438">
        <ele>726.960022</ele>
        <time>2007-02-09T15:07:10Z</time>
      </trkpt>
      <trkpt lat="45.41388" lon="5.51706">
        <ele>733</ele>
        <time>2007-02-09T15:07:10Z</time>
      </trkpt>
      <trkpt lat="45.41488" lon="5.51564">
        <ele>681.459229</ele>
        <time>2007-02-09T15:07:10Z</time>
      </trkpt>
      <trkpt lat="45.41476" lon="5.51438">
        <ele>685.745605</ele>
        <time>2007-02-09T15:07:10Z</time>
      </trkpt>
      <trkpt lat="45.41596" lon="5.514">
        <ele>712.279968</ele>
        <time>2007-02-09T15:07:10Z</time>
      </trkpt>
      <trkpt lat="45.41703" lon="5.51463">
        <ele>693.593628</ele>
        <time>2007-02-09T15:07:10Z</time>
      </trkpt>
      <trkpt lat="45.41909" lon="5.51268">
        <ele>671.495972</ele>
        <time>2007-02-09T15:07:10Z</time>
      </trkpt>
      <trkpt lat="45.4187" lon="5.51117">
        <ele>681.742432</ele>
        <time>2007-02-09T15:07:10Z</time>
      </trkpt>
      <trkpt lat="45.41968" lon="5.50968">
        <ele>656.884827</ele>
        <time>2007-02-09T15:07:10Z</time>
      </trkpt>
      <trkpt lat="45.42001" lon="5.50831">
        <ele>658.200012</ele>
        <time>2007-02-09T15:07:10Z</time>
      </trkpt>
      <trkpt lat="45.42207" lon="5.5074">
        <ele>621.23999</ele>
        <time>2007-02-09T15:07:10Z</time>
      </trkpt>
      <trkpt lat="45.42388" lon="5.50947">
        <ele>575.214417</ele>
        <time>2007-02-09T15:07:10Z</time>
      </trkpt>
      <trkpt lat="45.42527" lon="5.50838">
        <ele>562.519958</ele>
        <time>2007-02-09T15:07:10Z</time>
      </trkpt>
      <trkpt lat="45.42548" lon="5.50673">
        <ele>567.599976</ele>
        <time>2007-02-09T15:07:10Z</time>
      </trkpt>
      <trkpt lat="45.42579" lon="5.50508">
        <ele>572.998352</ele>
        <time>2007-02-09T15:07:10Z</time>
      </trkpt>
      <trkpt lat="45.42477" lon="5.50143">
        <ele>597.872009</ele>
        <time>2007-02-09T15:07:10Z</time>
      </trkpt>
      <trkpt lat="45.42567" lon="5.50081">
        <ele>591.119995</ele>
        <time>2007-02-09T15:07:10Z</time>
      </trkpt>
      <trkpt lat="45.42776" lon="5.50023">
        <ele>572.752014</ele>
        <time>2007-02-09T15:07:10Z</time>
      </trkpt>
      <trkpt lat="45.42867" lon="5.49926">
        <ele>577.320007</ele>
        <time>2007-02-09T15:07:10Z</time>
      </trkpt>
      <trkpt lat="45.43097" lon="5.49876">
        <ele>575.702393</ele>
        <time>2007-02-09T15:07:10Z</time>
      </trkpt>
      <trkpt lat="45.43194" lon="5.49848">
        <ele>578.21759</ele>
        <time>2007-02-09T15:07:10Z</time>
      </trkpt>
      <trkpt lat="45.4328" lon="5.49652">
        <ele>574.080017</ele>
        <time>2007-02-09T15:07:10Z</time>
      </trkpt>
      <trkpt lat="45.43682" lon="5.49459">
        <ele>580.039978</ele>
        <time>2007-02-09T15:07:10Z</time>
      </trkpt>
      <trkpt lat="45.43723" lon="5.49416">
        <ele>581.039978</ele>
        <time>2007-02-09T15:07:10Z</time>
      </trkpt>
      <trkpt lat="45.43938" lon="5.49379">
        <ele>572.927979</ele>
        <time>2007-02-09T15:07:10Z</time>
      </trkpt>
      <trkpt lat="45.43998" lon="5.49417">
        <ele>571.750427</ele>
        <time>2007-02-09T15:07:10Z</time>
      </trkpt>
      <trkpt lat="45.44169" lon="5.49388">
        <ele>568</ele>
        <time>2007-02-09T15:07:10Z</time>
      </trkpt>
      <trkpt lat="45.44299" lon="5.49302">
        <ele>559.52002</ele>
        <time>2007-02-09T15:07:10Z</time>
      </trkpt>
      <trkpt lat="45.44371" lon="5.49204">
        <ele>561.679993</ele>
        <time>2007-02-09T15:07:10Z</time>
      </trkpt>
      <trkpt lat="45.44396" lon="5.48808">
        <ele>560.223999</ele>
        <time>2007-02-09T15:07:10Z</time>
      </trkpt>
      <trkpt lat="45.44043" lon="5.48424">
        <ele>579.359985</ele>
        <time>2007-02-09T15:07:10Z</time>
      </trkpt>
      <trkpt lat="45.44036" lon="5.48091">
        <ele>575.679993</ele>
        <time>2007-02-09T15:07:10Z</time>
      </trkpt>
      <trkpt lat="45.43887" lon="5.48079">
        <ele>588.519958</ele>
        <time>2007-02-09T15:07:10Z</time>
      </trkpt>
      <trkpt lat="45.43477" lon="5.47519">
        <ele>574.400024</ele>
        <time>2007-02-09T15:07:10Z</time>
      </trkpt>
      <trkpt lat="45.43354" lon="5.47239">
        <ele>575.679993</ele>
        <time>2007-02-09T15:07:10Z</time>
      </trkpt>
      <trkpt lat="45.43295" lon="5.47176">
        <ele>577.599976</ele>
        <time>2007-02-09T15:07:10Z</time>
      </trkpt>
      <trkpt lat="45.43278" lon="5.46959">
        <ele>586.590393</ele>
        <time>2007-02-09T15:07:10Z</time>
      </trkpt>
      <trkpt lat="45.43424" lon="5.46945">
        <ele>591.731201</ele>
        <time>2007-02-09T15:07:10Z</time>
      </trkpt>
      <trkpt lat="45.43487" lon="5.47044">
        <ele>600.918396</ele>
        <time>2007-02-09T15:07:10Z</time>
      </trkpt>
      <trkpt lat="45.4371" lon="5.47165">
        <ele>626.545593</ele>
        <time>2007-02-09T15:07:10Z</time>
      </trkpt>
      <trkpt lat="45.44142" lon="5.46978">
        <ele>656.518372</ele>
        <time>2007-02-09T15:07:10Z</time>
      </trkpt>
      <trkpt lat="45.44259" lon="5.46943">
        <ele>669.719971</ele>
        <time>2007-02-09T15:07:10Z</time>
      </trkpt>
      <trkpt lat="45.445" lon="5.46651">
        <ele>685.057617</ele>
        <time>2007-02-09T15:07:10Z</time>
      </trkpt>
      <trkpt lat="45.4447" lon="5.46406">
        <ele>659.080017</ele>
        <time>2007-02-09T15:07:10Z</time>
      </trkpt>
      <trkpt lat="45.44599" lon="5.46342">
        <ele>627.240051</ele>
        <time>2007-02-09T15:07:10Z</time>
      </trkpt>
      <trkpt lat="45.44783" lon="5.46046">
        <ele>588.161621</ele>
        <time>2007-02-09T15:07:10Z</time>
      </trkpt>
      <trkpt lat="45.4459" lon="5.4591">
        <ele>579.600037</ele>
        <time>2007-02-09T15:07:10Z</time>
      </trkpt>
      <trkpt lat="45.44775" lon="5.45849">
        <ele>564.812805</ele>
        <time>2007-02-09T15:07:10Z</time>
      </trkpt>
      <trkpt lat="45.44746" lon="5.4582">
        <ele>554.880005</ele>
        <time>2007-02-09T15:07:10Z</time>
      </trkpt>
      <trkpt lat="45.44952" lon="5.45287">
        <ele>486</ele>
        <time>2007-02-09T15:07:10Z</time>
      </trkpt>
      <trkpt lat="45.45048" lon="5.45286">
        <ele>475.815979</ele>
        <time>2007-02-09T15:07:10Z</time>
      </trkpt>
      <trkpt lat="45.45172" lon="5.45129">
        <ele>449.959991</ele>
        <time>2007-02-09T15:07:10Z</time>
      </trkpt>
      <trkpt lat="45.45236" lon="5.44922">
        <ele>430.832001</ele>
        <time>2007-02-09T15:07:10Z</time>
      </trkpt>
      <trkpt lat="45.45208" lon="5.44791">
        <ele>419.720001</ele>
        <time>2007-02-09T15:07:10Z</time>
      </trkpt>
      <trkpt lat="45.4528" lon="5.44538">
        <ele>407.455994</ele>
        <time>2007-02-09T15:07:10Z</time>
      </trkpt>
      <trkpt lat="45.45257" lon="5.44427">
        <ele>408.436798</ele>
        <time>2007-02-09T15:07:10Z</time>
      </trkpt>
      <trkpt lat="45.45583" lon="5.43988">
        <ele>412.799988</ele>
        <time>2007-02-09T15:07:10Z</time>
      </trkpt>
      <trkpt lat="45.4554" lon="5.43808">
        <ele>416.959991</ele>
        <time>2007-02-09T15:07:10Z</time>
      </trkpt>
      <trkpt lat="45.45656" lon="5.4379">
        <ele>430.399994</ele>
        <time>2007-02-09T15:07:10Z</time>
      </trkpt>
      <trkpt lat="45.45713" lon="5.43654">
        <ele>447.759979</ele>
        <time>2007-02-09T15:07:10Z</time>
      </trkpt>
      <trkpt lat="45.45816" lon="5.43559">
        <ele>480.519989</ele>
        <time>2007-02-09T15:07:10Z</time>
      </trkpt>
      <trkpt lat="45.45861" lon="5.43879">
        <ele>493.600006</ele>
        <time>2007-02-09T15:07:10Z</time>
      </trkpt>
      <trkpt lat="45.45974" lon="5.43885">
        <ele>515.268799</ele>
        <time>2007-02-09T15:07:10Z</time>
      </trkpt>
      <trkpt lat="45.46355" lon="5.43354">
        <ele>589.791992</ele>
        <time>2007-02-09T15:07:10Z</time>
      </trkpt>
      <trkpt lat="45.46425" lon="5.4323">
        <ele>602.105591</ele>
        <time>2007-02-09T15:07:10Z</time>
      </trkpt>
      <trkpt lat="45.46491" lon="5.42971">
        <ele>621.719971</ele>
        <time>2007-02-09T15:07:10Z</time>
      </trkpt>
      <trkpt lat="45.4642" lon="5.4293">
        <ele>623</ele>
        <time>2007-02-09T15:07:10Z</time>
      </trkpt>
      <trkpt lat="45.46339" lon="5.42955">
        <ele>622.043152</ele>
        <time>2007-02-09T15:07:10Z</time>
      </trkpt>
      <trkpt lat="45.46174" lon="5.42928">
        <ele>626.487976</ele>
        <time>2007-02-09T15:07:10Z</time>
      </trkpt>
      <trkpt lat="45.46065" lon="5.4285">
        <ele>624.376038</ele>
        <time>2007-02-09T15:07:10Z</time>
      </trkpt>
      <trkpt lat="45.45981" lon="5.42853">
        <ele>625.984009</ele>
        <time>2007-02-09T15:07:10Z</time>
      </trkpt>
      <trkpt lat="45.45961" lon="5.4295">
        <ele>623.137573</ele>
        <time>2007-02-09T15:07:10Z</time>
      </trkpt>
      <trkpt lat="45.45972" lon="5.43044">
        <ele>612.880005</ele>
        <time>2007-02-09T15:07:10Z</time>
      </trkpt>
      <trkpt lat="45.45847" lon="5.43246">
        <ele>578.12323</ele>
        <time>2007-02-09T15:07:10Z</time>
      </trkpt>
      <trkpt lat="45.4571" lon="5.43258">
        <ele>546.919983</ele>
        <time>2007-02-09T15:07:10Z</time>
      </trkpt>
      <trkpt lat="45.45568" lon="5.43109">
        <ele>514.060791</ele>
        <time>2007-02-09T15:07:10Z</time>
      </trkpt>
      <trkpt lat="45.45526" lon="5.43005">
        <ele>509.633606</ele>
        <time>2007-02-09T15:07:10Z</time>
      </trkpt>
      <trkpt lat="45.45369" lon="5.42985">
        <ele>477.959991</ele>
        <time>2007-02-09T15:07:10Z</time>
      </trkpt>
      <trkpt lat="45.45122" lon="5.43066">
        <ele>443.839996</ele>
        <time>2007-02-09T15:07:10Z</time>
      </trkpt>
      <trkpt lat="45.45108" lon="5.43189">
        <ele>437.559998</ele>
        <time>2007-02-09T15:07:10Z</time>
      </trkpt>
      <trkpt lat="45.44951" lon="5.43252">
        <ele>462.440002</ele>
        <time>2007-02-09T15:07:10Z</time>
      </trkpt>
      <trkpt lat="45.44857" lon="5.43171">
        <ele>475.50238</ele>
        <time>2007-02-09T15:07:10Z</time>
      </trkpt>
      <trkpt lat="45.44787" lon="5.43024">
        <ele>490.880005</ele>
        <time>2007-02-09T15:07:10Z</time>
      </trkpt>
      <trkpt lat="45.44606" lon="5.42954">
        <ele>507.355194</ele>
        <time>2007-02-09T15:07:10Z</time>
      </trkpt>
      <trkpt lat="45.4449" lon="5.43091">
        <ele>511.559998</ele>
        <time>2007-02-09T15:07:10Z</time>
      </trkpt>
      <trkpt lat="45.44391" lon="5.4304">
        <ele>508.862396</ele>
        <time>2007-02-09T15:07:10Z</time>
      </trkpt>
      <trkpt lat="45.44249" lon="5.43213">
        <ele>492.335999</ele>
        <time>2007-02-09T15:07:10Z</time>
      </trkpt>
      <trkpt lat="45.4424" lon="5.43353">
        <ele>479.839996</ele>
        <time>2007-02-09T15:07:10Z</time>
      </trkpt>
      <trkpt lat="45.44394" lon="5.43475">
        <ele>474.799988</ele>
        <time>2007-02-09T15:07:10Z</time>
      </trkpt>
      <trkpt lat="45.44378" lon="5.43572">
        <ele>467.993622</ele>
        <time>2007-02-09T15:07:10Z</time>
      </trkpt>
      <trkpt lat="45.44239" lon="5.4361">
        <ele>465.387207</ele>
        <time>2007-02-09T15:07:10Z</time>
      </trkpt>
      <trkpt lat="45.44192" lon="5.43853">
        <ele>455.720001</ele>
        <time>2007-02-09T15:07:10Z</time>
      </trkpt>
      <trkpt lat="45.4408" lon="5.4404">
        <ele>459.519989</ele>
        <time>2007-02-09T15:07:10Z</time>
      </trkpt>
      <trkpt lat="45.44093" lon="5.44147">
        <ele>477.160004</ele>
        <time>2007-02-09T15:07:10Z</time>
      </trkpt>
      <trkpt lat="45.44043" lon="5.44366">
        <ele>496.639984</ele>
        <time>2007-02-09T15:07:10Z</time>
      </trkpt>
      <trkpt lat="45.44006" lon="5.44391">
        <ele>499.880005</ele>
        <time>2007-02-09T15:07:10Z</time>
      </trkpt>
      <trkpt lat="45.43946" lon="5.44535">
        <ele>513.47998</ele>
        <time>2007-02-09T15:07:10Z</time>
      </trkpt>
      <trkpt lat="45.43943" lon="5.44755">
        <ele>524.640015</ele>
        <time>2007-02-09T15:07:10Z</time>
      </trkpt>
      <trkpt lat="45.43812" lon="5.44867">
        <ele>522.200012</ele>
        <time>2007-02-09T15:07:10Z</time>
      </trkpt>
      <trkpt lat="45.43829" lon="5.44937">
        <ele>512.272034</ele>
        <time>2007-02-09T15:07:10Z</time>
      </trkpt>
      <trkpt lat="45.43942" lon="5.45083">
        <ele>495.279999</ele>
        <time>2007-02-09T15:07:10Z</time>
      </trkpt>
      <trkpt lat="45.43918" lon="5.45176">
        <ele>495.705597</ele>
        <time>2007-02-09T15:07:10Z</time>
      </trkpt>
      <trkpt lat="45.43921" lon="5.45252">
        <ele>499</ele>
        <time>2007-02-09T15:07:10Z</time>
      </trkpt>
      <trkpt lat="45.44037" lon="5.45222">
        <ele>497.832001</ele>
        <time>2007-02-09T15:07:10Z</time>
      </trkpt>
      <trkpt lat="45.44091" lon="5.45349">
        <ele>506.188812</ele>
        <time>2007-02-09T15:07:10Z</time>
      </trkpt>
      <trkpt lat="45.43957" lon="5.45399">
        <ele>517.404785</ele>
        <time>2007-02-09T15:07:10Z</time>
      </trkpt>
      <trkpt lat="45.4381" lon="5.45519">
        <ele>549.919983</ele>
        <time>2007-02-09T15:07:10Z</time>
      </trkpt>
      <trkpt lat="45.43438" lon="5.45767">
        <ele>589.440002</ele>
        <time>2007-02-09T15:07:10Z</time>
      </trkpt>
      <trkpt lat="45.43299" lon="5.45989">
        <ele>585.559998</ele>
        <time>2007-02-09T15:07:10Z</time>
      </trkpt>
      <trkpt lat="45.43251" lon="5.45934">
        <ele>578.027161</ele>
        <time>2007-02-09T15:07:10Z</time>
      </trkpt>
      <trkpt lat="45.43235" lon="5.45688">
        <ele>580.366394</ele>
        <time>2007-02-09T15:07:10Z</time>
      </trkpt>
      <trkpt lat="45.42905" lon="5.45575">
        <ele>569.919983</ele>
        <time>2007-02-09T15:07:10Z</time>
      </trkpt>
      <trkpt lat="45.42831" lon="5.45839">
        <ele>562.559998</ele>
        <time>2007-02-09T15:07:10Z</time>
      </trkpt>
      <trkpt lat="45.4273" lon="5.46079">
        <ele>559.440002</ele>
        <time>2007-02-09T15:07:10Z</time>
      </trkpt>
      <trkpt lat="45.42664" lon="5.46113">
        <ele>556.840027</ele>
        <time>2007-02-09T15:07:10Z</time>
      </trkpt>
      <trkpt lat="45.42621" lon="5.46397">
        <ele>554.96637</ele>
        <time>2007-02-09T15:07:10Z</time>
      </trkpt>
      <trkpt lat="45.42492" lon="5.46451">
        <ele>551.280029</ele>
        <time>2007-02-09T15:07:10Z</time>
      </trkpt>
      <trkpt lat="45.424" lon="5.46377">
        <ele>546.119995</ele>
        <time>2007-02-09T15:07:10Z</time>
      </trkpt>
      <trkpt lat="45.42244" lon="5.46501">
        <ele>541.320007</ele>
        <time>2007-02-09T15:07:10Z</time>
      </trkpt>
      <trkpt lat="45.42287" lon="5.46666">
        <ele>542.440002</ele>
        <time>2007-02-09T15:07:10Z</time>
      </trkpt>
      <trkpt lat="45.42194" lon="5.4674">
        <ele>537.615967</ele>
        <time>2007-02-09T15:07:10Z</time>
      </trkpt>
      <trkpt lat="45.42212" lon="5.46855">
        <ele>540.192017</ele>
        <time>2007-02-09T15:07:10Z</time>
      </trkpt>
      <trkpt lat="45.42184" lon="5.46894">
        <ele>540.679993</ele>
        <time>2007-02-09T15:07:10Z</time>
      </trkpt>
      <trkpt lat="45.42188" lon="5.46971">
        <ele>542.9328</ele>
        <time>2007-02-09T15:07:10Z</time>
      </trkpt>
      <trkpt lat="45.42127" lon="5.47036">
        <ele>545.159973</ele>
        <time>2007-02-09T15:07:10Z</time>
      </trkpt>
      <trkpt lat="45.42198" lon="5.47266">
        <ele>550.300842</ele>
        <time>2007-02-09T15:07:10Z</time>
      </trkpt>
      <trkpt lat="45.42236" lon="5.47521">
        <ele>556</ele>
        <time>2007-02-09T15:07:10Z</time>
      </trkpt>
      <trkpt lat="45.42258" lon="5.47709">
        <ele>568.360046</ele>
        <time>2007-02-09T15:07:10Z</time>
      </trkpt>
    </trkseg>
  </trk>
</gpx>